Date,TemperatureHighF,TemperatureAvgF,TemperatureLowF,DewpointHighF,DewpointAvgF,DewpointLowF,HumidityHigh,HumidityAvg,HumidityLow,PressureMaxIn,PressureMinIn,WindSpeedMaxMPH,WindSpeedAvgMPH,GustSpeedMaxMPH,PrecipitationSumIn
2013-1-1,37,27,18,14,12,9,72,55,38,30.29,30.15,8,2,9,0.00
2013-1-2,37,26,17,16,13,10,75,60,40,30.31,30.18,9,2,10,0.00
2013-1-3,38,26,16,16,9,1,75,52,24,30.40,30.28,11,1,11,0.00
2013-1-4,37,25,16,12,8,5,66,50,34,30.36,30.23,8,1,9,0.00
2013-1-5,37,25,15,14,10,6,71,55,35,30.41,30.27,8,2,8,0.00
2013-1-6,35,25,18,16,12,10,72,59,38,30.34,30.09,9,2,9,0.00
2013-1-7,41,29,20,17,14,12,72,55,35,30.15,30.06,11,2,11,0.00
2013-1-8,44,30,18,19,15,11,75,56,34,30.32,30.08,10,2,10,0.00
2013-1-9,46,33,22,25,20,15,77,62,41,30.40,30.10,8,2,8,0.00
2013-1-10,45,34,28,28,24,19,84,66,37,30.10,29.62,32,3,32,0.00
2013-1-11,34,29,20,19,6,1,53,38,27,29.98,29.70,31,9,31,0.00
2013-1-12,31,22,12,10,6,3,72,50,32,30.03,29.94,9,2,9,0.00
2013-1-13,28,22,12,5,2,-1,63,41,30,30.06,29.99,12,2,12,0.00
2013-1-14,27,20,10,1,-3,-6,54,37,23,30.25,30.06,16,2,16,0.00
2013-1-15,30,19,9,3,-1,-5,54,42,28,30.42,30.25,8,2,8,0.00
2013-1-16,36,24,13,11,6,2,61,47,32,30.49,30.39,9,2,9,0.00
2013-1-17,40,27,16,15,11,7,70,53,34,30.53,30.40,9,2,9,0.00
2013-1-18,42,28,17,18,13,9,72,55,33,30.45,30.32,8,2,8,0.00
2013-1-19,44,29,17,19,15,10,75,57,35,30.47,30.34,8,2,9,0.00
2013-1-20,43,29,18,21,16,12,78,60,37,30.39,30.26,8,2,8,0.00
2013-1-21,44,30,17,21,16,11,78,58,35,30.40,30.28,8,2,9,0.00
2013-1-22,46,31,20,22,16,13,74,56,34,30.39,30.29,7,1,7,0.00
2013-1-23,43,32,21,21,18,14,75,57,39,30.42,30.31,7,1,7,0.00
2013-1-24,43,38,34,30,23,20,70,55,44,30.33,30.27,6,1,6,0.00
2013-1-25,48,42,38,34,32,29,75,67,55,30.32,30.17,8,1,9,0.00
2013-1-26,42,41,39,40,38,34,94,90,71,30.17,29.90,5,0,5,0.69
2013-1-27,50,43,37,45,38,26,97,85,43,29.97,29.82,20,2,21,0.01
2013-1-28,42,37,30,36,28,9,90,70,40,29.95,29.83,27,5,27,0.03
2013-1-29,43,33,23,23,15,8,69,47,39,30.17,29.93,36,7,36,0.00
2013-1-30,49,38,27,28,22,16,80,54,37,30.25,30.16,18,3,20,0.00
2013-1-31,50,38,28,32,28,24,87,69,43,30.32,30.23,10,2,10,0.00